Tracking 30923 objects as of 1-Jul-2025
HD Live streaming from Space Station
objects crossing your sky now

STARLINK-5892

Track STARLINK-5892 now!
10-day predictions
STARLINK-5892 is classified as:


NORAD ID: 55954
Int'l Code: 2023-037AS
Perigee: 576.5 km
Apogee: 581.9 km
Inclination: 70.0 °
Period: 96.1 minutes
Semi major axis: 6950 km
RCS: Unknown
Launch date: March 17, 2023
Source: United States (US)
Launch site: AIR FORCE WESTERN TEST RANGE (AFWTR)
Your satellite tracking list
SL-8 R/B
Track 1 satellite(s)




NASA's NSSDC Master Catalog

Two Line Element Set (TLE):
1 55954U 23037AS  25181.73018469 -.00000028  00000-0  54467-5 0  9990
2 55954  69.9996 179.6695 0003871 267.2698  92.8018 14.98331055127074
Source of the keplerian elements: AFSPC